Regional Weather Roundup
Issued by NWS

Home | Current Version | Previous Version | Text Only | Print | Product List | Glossary On
Versions: 1 2 3 4 5 6 7 8 9 10 11 12 13 14 15 16 17 18 19 20 21 22 23 24 25 26 27 28 29 30 31 32 33 34 35 36 37 38 39 40 41 42 43 44 45 46 47 48 49 50
000
ASUS46 KSEW 202010
RWRWA

WASHINGTON REGIONAL WEATHER ROUNDUP
NATIONAL WEATHER SERVICE SEATTLE WA
100 PM PDT FRI OCT 20 2017

NOTE:"FAIR" INDICATES FEW OR NO CLOUDS BELOW 12,000 FEET WITH NO
SIGNIFICANT WEATHER AND/OR OBSTRUCTIONS TO VISIBILITY.

WAZ507-509-555>559-202100-
SEATTLE, TACOMA, EVERETT, AND VICINITY

CITY           SKY/WX    TMP DP  RH WIND       PRES   REMARKS
EVERETT        LGT RAIN  48  45  89 SE18      29.74R
BOEING FIELD   CLOUDY    51  45  79 S9        29.76S
RENTON         CLOUDY    52  47  83 SE10      29.76S
SEATAC AIRPORT PTSUNNY   51  46  83 S13       29.76S
JBLM-MCCHORD   CLOUDY    51  50  95 SW17      29.78R
PUYALLUP       CLOUDY    52  46  82 VRB7G13   29.78R
BREMERTON      CLOUDY    48  46  93 S15       29.75S
JBLM-FT LEWIS  PTSUNNY   52  50  93 S10       29.78R
TACOMA NARROWS PTSUNNY   50  46  86 S12       29.78R
$$

WAZ001-503-506-510-514-515-202100-
NORTH INTERIOR

CITY           SKY/WX    TMP DP  RH WIND       PRES   REMARKS
BELLINGHAM     CLOUDY    52  46  80 SE17G25   29.69R
FRIDAY HARBOR  PTSUNNY   51  46  83 S7        29.71R
EASTSOUND      CLOUDY    52  46  82 S9        29.69R
PORT ANGELES   CLOUDY    52  45  77 NW8       29.72R
EDIZ HOOK      MOCLDY    52  46  80 NW17      29.71R
PORT TOWNSEND  CLOUDY    52  45  76 CALM      29.73R
NAS WHIDBEY    CLOUDY    56  42  59 S6        29.75R
ARLINGTON      LGT RAIN  48  44  86 S10       29.76R
BURLINGTON     CLOUDY    50  46  87 SE8G15    29.73R
$$

WAZ020-022-039-040-504-511-512-202100-
SOUTHWEST INTERIOR

CITY           SKY/WX    TMP DP  RH WIND       PRES   REMARKS
SHELTON        CLOUDY    51  47  86 S10       29.74R
OLYMPIA        CLOUDY    52  47  83 SW7       29.79R
CHEHALIS       CLOUDY    52  46  82 SW5       29.82R
KELSO          CLOUDY    52  46  80 S6        29.85R
VANCOUVER      LGT RAIN  52  47  83 SW10G21   29.87R
SCAPPOOSE, OR  CLOUDY    51  47  86 S3        29.85R
PORTLAND, OR   LGT RAIN  52  46  80 SW22      29.87R
$$

WAZ021-516-517-202100-
WASHINGTON COAST

CITY           SKY/WX    TMP DP  RH WIND       PRES   REMARKS
FORKS          LGT RAIN  50  47  89 SW5       29.76R
HOQUIAM        CLOUDY    54  50  86 SW16      29.79R
ASTORIA, OR    CLOUDY    50  47  89 SW9       29.84R
$$

WAZ019-023-024-040-567>569-202100-
CASCADE MOUNTAINS AND COLUMBIA GORGE

CITY           SKY/WX    TMP DP  RH WIND       PRES   REMARKS
STAMPEDE PASS  LGT SNOW  34  33  96 VRB7      29.70R FOG
TROUTDALE, OR  CLOUDY    53  45  74 SW10      29.87R
HOOD RIVER, OR PTCLDY    52  41  66 S9G21     29.82R
THE DALLES, OR PTSUNNY   58  38  47 W26G37    29.78S
$$

WAZ026-027-041>044-520-521-202100-
EAST SLOPES

CITY           SKY/WX    TMP DP  RH WIND       PRES   REMARKS
OMAK           MOSUNNY   56  37  49 S7        29.59S
WENATCHEE      PTSUNNY   54  35  48 CALM      29.64S
ELLENSBURG     LGT RAIN  53  36  52 NW17      29.68S
YAKIMA         MOSUNNY   62  34  35 VRB3      29.69S
SUNNYSIDE ARPT MOCLDY    55  34  45 SW16      29.72S
YAKIMA TC      FAIR      58  30  34 NW9       29.67R
$$

WAZ028-034-035-202100-
COLUMBIA BASIN

CITY           SKY/WX    TMP DP  RH WIND       PRES   REMARKS
EPHRATA        MOSUNNY   54  32  43 SW8       29.65S
MOSES LAKE     MOSUNNY   56  34  43 SW21      29.67R
PASCO          MOSUNNY   59  40  49 SW26G33   29.74R
RICHLAND ARPT  MOCLDY    60  39  47 SW16G25   29.73R
HERMISTON, OR  PTSUNNY   59  39  47 W16G28    29.77R
$$

WAZ036>038-202100-
NORTHEAST WASHINGTON

CITY           SKY/WX    TMP DP  RH WIND       PRES   REMARKS
SPOKANE GEIGER PTSUNNY   48  40  73 SW16      29.63R
SPOKANE FELTS  PTSUNNY   49  40  71 SW13      29.64S
FAIRCHILD AFB  CLOUDY    49  39  69 SW22G29   29.62S
COEURDALENE,ID CLOUDY    46  39  76 S8        29.64S
DEER PARK      PTSUNNY   49  42  77 SW13      29.62S
$$

WAZ029>033-202100-
SOUTHEAST WASHINGTON

CITY           SKY/WX    TMP DP  RH WIND       PRES   REMARKS
PULLMAN        PTSUNNY   47  38  71 SW24G33   29.70S
LEWISTON, ID   PTSUNNY   56  42  59 VRB6      29.70R
WALLA WALLA    PTSUNNY   54  40  59 SW23G32   29.75S
PENDLETON, OR  MOSUNNY   55  38  52 W18G29    29.77R
$$



USA.gov is the U.S. government's official web portal to all federal, state and local government web resources and services.